CZ-6A DEB, 61137

Orbit data source: Space-Track

CZ-6A DEB, 61137 is space debris in LEO originally from a launch on Tue, 06 Aug 2024 UTC launched from the Taiyaun Space Center, China (TSC). Debris objects in space refer to the collection of defunct objects orbiting the Earth. Examples of debris include non-operational satellites, rocket bodies, and fragments generated from explosions, collisions, or faulty payload assembly.

Loading next visibility...
Identifier
61137, 2024-140QF
Orbit
LEO
Country
Flag of CNCN / PRC
Related business
Manufacturer
SAST
Mission
Spacecraft
Bus & Motor
Unknown
Mass
Unknown
Launch date (UTC)
2024-08-06 (2 years ago)
Launch vehicle
Unknown
Launch site
Taiyaun Space Center, China (TSC)
Object type
Payload
Rocket body
Debris
Shape & HBR
Unknown shape, 0.1 m
Radar Cross Section
Medium (>0.1 m² and <1 m²)

Expand to show TLE details & history
Last TLE update: 15 hours ago

TLE from 15 hours ago
0 CZ-6A DEB
1 61137U 24140QF  26171.27013850  .00000943  00000-0  55949-3 0  9993
2 61137  88.9862 275.6122 0142128 264.5929  93.9023 14.02004460 93381
Epoch: 2026-06-20T06:28Z
TLE epoch observation values (Epoch: 2026-06-20T06:28:59.966Z)
Latitude
-0.00007°
Longitude
-90.12483°
Altitude
898.377 km
Speed
7.399 km/s
True Right ascension
18h 22m 26s
True Declination
0° 00' 00"
Sunlit
Object was in full shadow at epoch
Visualization orbit readout
Latitude
Unknown
Longitude
Unknown
Altitude
Unknown
Speed
Unknown
Apparent Right ascension
Unknown
Apparent Declination
Unknown
Sunlit
N/A
Visualization observer readout
Local Sidereal Time
08:42:24
Azimuth
Unknown
Elevation
Unknown
Doppler factor
Unknown
Orbital elements
Apogee altitude
987.052 km
Perigee altitude
780.626 km
Semi-major axis
7,261.976 km
Eccentricity
0.01421
Inclination
88.9862°
RAAN
275.6122°
Arg. of periapsis
264.5929°
True anomaly
95.52501°
Mean anomaly
93.9023°
Eccentric anomaly
94.71388°
Mean motion
3.5072 °/min
Orbital period
102.65 mins
BSTAR
0.00055949
Loading maneuver chart data...
Computing Atmospheric mass density...
Loading historical data...
Loading historical data...
Loading historical data...
Loading historical data...
Loading historical data...
Loading historical data...
Loading historical data...

Documentation

Showing up to 5 results
|